Weather History for Shawbury, United Kingdom

Change the Weather History Date:

Sunday, November 4, 2012

  Actual Average Record
Temperature  
Mean Temperature 38 °F -  
Max Temperature 43 °F 46 °F 60 °F (2010)
Min Temperature 33 °F 36 °F 30 °F (2006)
Degree Days  
Heating Degree Days 27    
Moisture  
Dew Point 35 °F    
Average Humidity 89    
Maximum Humidity 100    
Minimum Humidity 74    
Precipitation  
Precipitation 0.01 in - - ()
Sea Level Pressure  
Sea Level Pressure 29.37 in    
Wind  
Wind Speed 4 mph ()    
Max Wind Speed 7 mph    
Max Gust Speed -    
Visibility 6.1 miles    
Events      
Averages and records for this station are not official NWS values.
T = Trace of Precipitation, MM = Missing Value Source: Averaged Metar Reports

Daily Weather History Graph

Daily Weather History Graph

Search for Another Location

Airport:

Trip Planner

Search our weather history database for the weather conditions in past years. The results will help you decide how hot, cold, wet, or windy it might be!

Date:

Astronomy

Nov. 04, 2012 Rise Set
Actual Time 7:13 AM GMT 4:33 PM GMT
Civil Twilight 6:37 AM GMT 5:10 PM GMT
Nautical Twilight 5:56 AM GMT 5:51 PM GMT
Astronomical Twilight 5:16 AM GMT 6:31 PM GMT
Moon 8:49 PM GMT (11/4) 11:59 AM GMT (11/4)
Length of Visible Light 10h 33m
Length of Day
9h 19m
Waning Gibbous, 74% of the Moon is Illuminated
Nov 4
Waning Gibbous
Nov 7
Last Quarter
Nov 13
New
Nov 20
First Quarter
Nov 28
Full

Hourly Weather History & Observations

Time (GMT) Temp. Windchill Dew Point Humidity Pressure Visibility Wind Dir Wind Speed Gust Speed Precip Events Conditions
12:50 AM 35.6 °F 30.7 °F 33.8 °F 93% 29.42 in 6.2 mi SSE 5.8 mph - N/A   Unknown
1:50 AM 35.6 °F - 33.8 °F 93% 29.39 in 6.2 mi ESE 2.3 mph - N/A   Unknown
2:50 AM 35 °F - 33 °F 90% 29.39 in 17 mi ESE 4.6 mph - -   Scattered Clouds
2:50 AM 35.6 °F 31.7 °F 33.8 °F 93% 29.36 in 6.2 mi ESE 4.6 mph - N/A   Partly Cloudy
3:50 AM 33.8 °F 29.6 °F 33.8 °F 100% 29.36 in 6.2 mi East 4.6 mph - N/A   Scattered Clouds
4:50 AM 33.8 °F 27.7 °F 33.8 °F 100% 29.36 in - East 6.9 mph - N/A   Mostly Cloudy
5:50 AM 34 °F - 33 °F 93% 29.35 in 6 mi East 5.8 mph - -  
5:50 AM 33.8 °F 28.6 °F 32.0 °F 93% 29.33 in 6.2 mi East 5.8 mph - N/A   Overcast
6:50 AM 33.8 °F 27.7 °F 33.8 °F 100% 29.33 in 6.2 mi East 6.9 mph - N/A   Overcast
7:50 AM 33.8 °F 29.6 °F 32.0 °F 93% 29.30 in - ENE 4.6 mph - N/A   Overcast
8:50 AM 33 °F - 33 °F 98% 29.33 in 4 mi NNW 2.3 mph - -   Mist
8:50 AM 33.8 °F - 32.0 °F 93% 29.30 in 4.3 mi NNW 2.3 mph - N/A   Overcast
9:50 AM 35.6 °F 30.7 °F 33.8 °F 93% 29.30 in 5.6 mi North 5.8 mph - N/A   Mostly Cloudy
10:50 AM 37.4 °F 33.8 °F 35.6 °F 93% 29.30 in 6.2 mi ENE 4.6 mph - N/A   Scattered Clouds
11:50 AM 40 °F - 35 °F 78% 29.33 in 9 mi ESE 5.8 mph - -   Partly Cloudy
11:50 AM 41.0 °F 37.1 °F 35.6 °F 81% 29.30 in 6.2 mi ESE 5.8 mph - N/A   Scattered Clouds
12:50 PM 42.8 °F 38.6 °F 37.4 °F 81% 29.30 in 6.2 mi ESE 6.9 mph - N/A   Mostly Cloudy
1:50 PM 42.8 °F - 37.4 °F 81% 29.30 in 6.2 mi SW 2.3 mph - N/A   Mostly Cloudy
2:50 PM 43 °F - 38 °F 74% 29.34 in 11 mi NNE 1.2 mph - -   Mostly Cloudy
2:50 PM 42.8 °F - 37.4 °F 81% 29.33 in 6.2 mi NNE 1.2 mph - N/A   Mostly Cloudy
3:50 PM 42.8 °F 40.1 °F 37.4 °F 81% 29.33 in 6.2 mi East 4.6 mph - N/A   Partly Cloudy
4:50 PM 41.0 °F 39.0 °F 37.4 °F 87% 29.36 in 6.2 mi East 3.5 mph - N/A   Mostly Cloudy
5:50 PM 40 °F - 37 °F 84% 29.39 in 7 mi East 2.3 mph - -   Mostly Cloudy
5:50 PM 41.0 °F - 37.4 °F 87% 29.36 in 6.2 mi East 2.3 mph - N/A   Mostly Cloudy
6:50 PM 41.0 °F 39.0 °F 37.4 °F 87% 29.39 in 5.6 mi East 3.5 mph - N/A   Haze
7:50 PM 39.2 °F 35.9 °F 37.4 °F 93% 29.42 in 5.6 mi NE 4.6 mph - N/A   Haze
8:50 PM 39 °F - 37 °F 88% 29.44 in 3 mi NE 3.5 mph - -   Light Haze
8:50 PM 39.2 °F 37.0 °F 37.4 °F 93% 29.42 in 3.1 mi NE 3.5 mph - N/A   Haze
9:50 PM 41.0 °F 37.1 °F 37.4 °F 87% 29.44 in 3.7 mi ENE 5.8 mph - N/A   Haze
10:50 PM 39.2 °F - 37.4 °F 93% 29.44 in 4.3 mi East 2.3 mph - N/A   Haze
11:50 PM 40 °F - 37 °F 87% 29.50 in 4 mi NNE 4.6 mph - -   Mist
11:50 PM 39.2 °F 35.9 °F 37.4 °F 93% 29.47 in 4.3 mi NNE 4.6 mph - N/A   Haze